Starlink 5297

operational
NORAD ID: 54158 Int'l Des: 2022-141 Owner: SPXS Country: US Constellation: starlink
LEOCIRCULAR

Über Starlink 5297

Beschreibung wird geladen...

Live-Position

3D-Globus wird geladen...

Nächste Überflüge

Höhenverlauf

Altitude vs Time

uPlot chart will show altitude changes over time

Zweizeiliger Elementsatz

1 54158U 22141B 26035.49206536 .00001470 00000-0 11041-3 0 9996
2 54158 53.2142 163.2832 0001614 97.9586 262.1589 15.08852617180705
Epoch: 4. Feb. 2026 • Age: 10 hours

Aktueller Status

Höhe 543.5 km
Geschwindigkeit 7.60 km/s
Subsatellitenpunkt 44.89°N, 109.89°E
Startdatum 28. Okt. 2022
Alter 3.2 years
Typ internet

Technische Details

Klassifizierung Payload
Masse 305.00 kg
Trockenmasse 290.00 kg
Gesamtmasse 305.00 kg
Länge 0.20 m
Durchmesser 2.80 m
Spannweite 9.00 m
Form Box + pan
Hersteller SPXS
Bus-Typ Starlink
Phasenstatus In Orbit
Besitzer/Staat SPXS/US

Große Konstellationen

Loading constellations...